• In Lithuania
  • List of Countries
  • For 7 days
  • Water Temperature
  • Satellite Maps
  • Weather Map
  • Weather Widgets
  • user-avatar
    Login

    Hourly Weather Gabú

    Today, 23 November, Thursday

    Time Temperature Precipitation Wind Pressure Humidity
    00:00 +26°C° 0 mm 1 mps 752 mmHg 28%
    01:00 +25°C° 0 mm 1 mps 751 mmHg 33%
    02:00 +24°C° 0 mm 1 mps 751 mmHg 38%
    03:00 +24°C° 0 mm 1 mps 751 mmHg 44%
    04:00 +23°C° 0 mm 1 mps 752 mmHg 50%
    05:00 +21°C° 0 mm 0 mps 752 mmHg 59%
    06:00 +23°C° 0 mm 0 mps 752 mmHg 56%
    07:00 +25°C° 0 mm 0 mps 752 mmHg 52%
    08:00 +27°C° 0 mm 0 mps 753 mmHg 49%
    09:00 +33°C° 0 mm 1 mps 753 mmHg 40%
    10:00 +36°C° 0 mm 1 mps 752 mmHg 30%
    11:00 +41°C° 0 mm 1 mps 752 mmHg 20%
    12:00 +41°C° 0 mm 1 mps 752 mmHg 19%
    13:00 +42°C° 0 mm 1 mps 751 mmHg 18%
    14:00 +43°C° 0 mm 1 mps 751 mmHg 17%
    15:00 +41°C° 0 mm 1 mps 750 mmHg 20%
    16:00 +39°C° 0 mm 1 mps 750 mmHg 22%
    17:00 +37°C° 0 mm 1 mps 750 mmHg 25%
    18:00 +35°C° 0 mm 1 mps 751 mmHg 30%
    19:00 +33°C° 0 mm 1 mps 752 mmHg 34%
    20:00 +31°C° 0 mm 2 mps 752 mmHg 39%
    21:00 +30°C° 0 mm 2 mps 752 mmHg 50%
    22:00 +29°C° 0 mm 2 mps 753 mmHg 60%
    23:00 +28°C° 0 mm 3 mps 753 mmHg 71%

    Tomorrow, 24 November, Friday

    Time Temperature Precipitation Wind Pressure Humidity
    00:00 +27°C° 0 mm 2 mps 753 mmHg 75%
    01:00 +26°C° 0 mm 2 mps 753 mmHg 79%
    02:00 +26°C° 0 mm 1 mps 753 mmHg 83%
    03:00 +26°C° 0 mm 1 mps 753 mmHg 85%
    04:00 +25°C° 0 mm 1 mps 753 mmHg 88%
    05:00 +25°C° 0 mm 1 mps 753 mmHg 91%
    06:00 +26°C° 0 mm 1 mps 753 mmHg 83%
    07:00 +28°C° 0 mm 1 mps 753 mmHg 75%
    08:00 +30°C° 0 mm 2 mps 753 mmHg 67%
    09:00 +33°C° 0 mm 1 mps 753 mmHg 54%
    10:00 +37°C° 0 mm 1 mps 753 mmHg 40%
    11:00 +41°C° 0 mm 1 mps 753 mmHg 27%
    12:00 +42°C° 0 mm 1 mps 752 mmHg 25%
    13:00 +42°C° 0 mm 1 mps 751 mmHg 23%
    14:00 +43°C° 0 mm 1 mps 750 mmHg 20%
    15:00 +41°C° 0 mm 1 mps 750 mmHg 23%
    16:00 +40°C° 0 mm 1 mps 750 mmHg 25%
    17:00 +37°C° 0 mm 1 mps 750 mmHg 27%
    18:00 +35°C° 0 mm 1 mps 751 mmHg 32%
    19:00 +33°C° 0 mm 1 mps 751 mmHg 37%
    20:00 +31°C° 0 mm 2 mps 752 mmHg 42%
    21:00 +30°C° 0 mm 2 mps 752 mmHg 49%
    22:00 +29°C° 0 mm 2 mps 752 mmHg 56%
    23:00 +28°C° 0 mm 2 mps 753 mmHg 62%

    Day after tomorrow, 25 November, Saturday

    Time Temperature Precipitation Wind Pressure Humidity
    00:00 +27°C° 0 mm 2 mps 752 mmHg 67%
    01:00 +26°C° 0 mm 2 mps 752 mmHg 72%
    02:00 +26°C° 0 mm 1 mps 752 mmHg 77%
    03:00 +25°C° 0 mm 1 mps 752 mmHg 80%
    04:00 +25°C° 0 mm 1 mps 752 mmHg 83%
    05:00 +24°C° 0 mm 1 mps 752 mmHg 86%
    06:00 +26°C° 0 mm 1 mps 752 mmHg 79%
    07:00 +28°C° 0 mm 1 mps 753 mmHg 72%
    08:00 +29°C° 0 mm 1 mps 753 mmHg 64%
    09:00 +33°C° 0 mm 1 mps 753 mmHg 53%
    10:00 +36°C° 0 mm 1 mps 753 mmHg 41%
    11:00 +41°C° 0 mm 1 mps 753 mmHg 29%
    12:00 +41°C° 0 mm 1 mps 752 mmHg 27%
    13:00 +42°C° 0 mm 1 mps 751 mmHg 24%
    14:00 +42°C° 0 mm 1 mps 750 mmHg 22%
    15:00 +41°C° 0 mm 1 mps 750 mmHg 23%
    16:00 +39°C° 0 mm 1 mps 750 mmHg 25%
    17:00 +37°C° 0 mm 1 mps 750 mmHg 27%
    18:00 +35°C° 0 mm 1 mps 751 mmHg 32%
    19:00 +34°C° 0 mm 2 mps 752 mmHg 38%
    20:00 +31°C° 0 mm 2 mps 753 mmHg 44%
    21:00 +30°C° 0 mm 2 mps 753 mmHg 53%
    22:00 +29°C° 0 mm 2 mps 753 mmHg 62%
    23:00 +28°C° 0 mm 3 mps 753 mmHg 71%

    26 November, Sunday

    Time Temperature Precipitation Wind Pressure Humidity
    00:00 +27°C° 0 mm 2 mps 753 mmHg 77%
    01:00 +26°C° 0 mm 1 mps 753 mmHg 83%
    02:00 +25°C° 0 mm 1 mps 753 mmHg 88%
    03:00 +25°C° 0 mm 1 mps 753 mmHg 90%
    04:00 +23°C° 0 mm 0 mps 753 mmHg 92%
    05:00 +23°C° 0 mm 0 mps 753 mmHg 95%
    06:00 +26°C° 0 mm 1 mps 753 mmHg 87%
    07:00 +28°C° 0 mm 1 mps 754 mmHg 79%
    08:00 +30°C° 0 mm 1 mps 754 mmHg 71%
    09:00 +34°C° 0 mm 1 mps 754 mmHg 57%
    10:00 +35°C° 0 mm 0 mps 754 mmHg 44%
    11:00 +39°C° 0 mm 0 mps 754 mmHg 30%
    12:00 +42°C° 0 mm 1 mps 753 mmHg 27%
    13:00 +42°C° 0 mm 1 mps 752 mmHg 24%
    14:00 +42°C° 0 mm 1 mps 751 mmHg 21%
    15:00 +41°C° 0 mm 1 mps 751 mmHg 23%
    16:00 +39°C° 0 mm 1 mps 751 mmHg 24%
    17:00 +37°C° 0 mm 1 mps 751 mmHg 25%
    18:00 +35°C° 0 mm 1 mps 751 mmHg 30%
    19:00 +33°C° 0 mm 1 mps 752 mmHg 34%
    20:00 +31°C° 0 mm 1 mps 753 mmHg 39%
    21:00 +30°C° 0 mm 1 mps 753 mmHg 50%
    22:00 +28°C° 0 mm 1 mps 753 mmHg 60%
    23:00 +27°C° 0 mm 2 mps 753 mmHg 71%

    27 November, Monday

    Time Temperature Precipitation Wind Pressure Humidity
    00:00 +26°C° 0 mm 1 mps 753 mmHg 78%
    01:00 +26°C° 0 mm 1 mps 752 mmHg 84%
    02:00 +25°C° 0 mm 1 mps 752 mmHg 91%
    03:00 +25°C° 0 mm 1 mps 752 mmHg 93%
    04:00 +25°C° 0 mm 1 mps 753 mmHg 94%
    05:00 +24°C° 0 mm 1 mps 753 mmHg 96%
    06:00 +26°C° 0 mm 1 mps 753 mmHg 87%
    07:00 +26°C° 0 mm 0 mps 754 mmHg 78%
    08:00 +28°C° 0 mm 0 mps 754 mmHg 70%
    09:00 +32°C° 0 mm 1 mps 754 mmHg 55%
    10:00 +36°C° 0 mm 2 mps 753 mmHg 40%
    11:00 +39°C° 0 mm 2 mps 753 mmHg 25%
    12:00 +40°C° 0 mm 3 mps 752 mmHg 22%
    13:00 +42°C° 0 mm 3 mps 751 mmHg 19%
    14:00 +43°C° 0 mm 3 mps 750 mmHg 15%
    15:00 +41°C° 0 mm 2 mps 750 mmHg 16%
    16:00 +40°C° 0 mm 2 mps 750 mmHg 18%
    17:00 +37°C° 0 mm 1 mps 750 mmHg 19%
    18:00 +35°C° 0 mm 1 mps 751 mmHg 23%
    19:00 +33°C° 0 mm 1 mps 752 mmHg 27%
    20:00 +30°C° 0 mm 1 mps 752 mmHg 31%
    21:00 +29°C° 0 mm 1 mps 753 mmHg 47%
    22:00 +28°C° 0 mm 2 mps 753 mmHg 64%
    23:00 +27°C° 0 mm 2 mps 753 mmHg 80%

    28 November, Tuesday

    Time Temperature Precipitation Wind Pressure Humidity
    00:00 +26°C° 0 mm 2 mps 753 mmHg 85%
    01:00 +26°C° 0 mm 2 mps 753 mmHg 90%
    02:00 +26°C° 0 mm 2 mps 753 mmHg 95%
    03:00 +25°C° 0 mm 1 mps 753 mmHg 96%
    04:00 +25°C° 0 mm 1 mps 753 mmHg 96%
    05:00 +25°C° 0 mm 1 mps 753 mmHg 97%
    06:00 +26°C° 0 mm 1 mps 753 mmHg 90%
    07:00 +28°C° 0 mm 1 mps 754 mmHg 82%
    08:00 +29°C° 0 mm 1 mps 754 mmHg 75%
    09:00 +33°C° 0 mm 1 mps 754 mmHg 60%
    10:00 +34°C° 0 mm 0 mps 753 mmHg 46%
    11:00 +38°C° 0 mm 0 mps 753 mmHg 31%
    12:00 +38°C° 0 mm 0 mps 752 mmHg 28%
    13:00 +42°C° 0 mm 1 mps 751 mmHg 25%
    14:00 +42°C° 0 mm 1 mps 751 mmHg 21%
    15:00 +41°C° 0 mm 1 mps 751 mmHg 22%
    16:00 +39°C° 0 mm 1 mps 751 mmHg 24%
    17:00 +37°C° 0 mm 1 mps 751 mmHg 25%
    18:00 +35°C° 0 mm 1 mps 751 mmHg 31%
    19:00 +33°C° 0 mm 1 mps 752 mmHg 37%
    20:00 +30°C° 0 mm 1 mps 752 mmHg 43%
    21:00 +30°C° 0 mm 2 mps 752 mmHg 54%
    22:00 +29°C° 0 mm 2 mps 752 mmHg 65%
    23:00 +28°C° 0 mm 3 mps 752 mmHg 76%
    Show more